Theta_e
293 293 293 293 293 294 293 293 293 292 293 294 295 297 299 300 301 301 301 301 301 303 303 302 302 302 300 300 300 300 301 301 300 300 301 302 303 305 307 304 302 303 304 305 307 306 306 306 307 307 307 307 308 307 306 307 308 307 306 308 309 309 311 311 311 311 310 311 313 314 313 311 314 317 317 317 319 318 319 319 318 318 318 318 319 319 318
292 293 293 293 293 293 293 293 292 292 292 293 295 298 299 299 299 300 300 301 301 303 303 303 303 301 299 300 300 299 301 300 300 300 300 301 302 304 305 303 302 303 303 304 305 304 304 305 307 308 307 307 307 307 307 306 306 306 306 308 309 309 311 312 311 311 311 310 310 311 311 310 311 314 315 315 316 317 318 317 317 318 319 318 319 319 317
293 292 292 292 293 293 293 293 292 291 290 293 296 298 298 299 300 299 298 299 301 302 302 302 303 301 300 301 300 299 300 300 299 299 299 301 301 302 302 302 302 303 302 303 305 305 303 303 304 305 306 307 307 307 307 305 304 305 308 311 312 310 311 312 311 311 311 311 309 309 309 310 310 310 312 314 315 315 317 317 317 319 319 318 319 319 317
293 292 292 292 292 293 293 293 292 290 290 293 296 298 298 300 301 300 299 299 299 300 300 301 303 302 301 301 301 300 300 300 299 299 299 300 301 301 301 301 302 302 303 305 307 306 304 302 303 304 306 308 308 306 306 305 305 305 308 311 311 309 309 310 309 309 309 309 309 307 306 307 308 308 309 311 311 310 312 314 316 317 317 317 318 319 318
293 292 292 292 292 292 293 292 291 289 289 293 297 297 297 299 300 300 300 300 300 300 300 301 302 301 301 301 300 300 300 300 299 299 299 299 300 301 301 301 302 302 303 304 305 305 304 304 304 304 305 306 306 306 306 306 305 306 307 309 308 306 307 308 307 308 307 306 307 306 305 306 306 306 306 306 307 307 308 310 312 312 314 315 316 316 316
292 292 292 292 291 292 292 292 292 289 288 293 298 297 296 298 299 297 297 300 301 301 301 302 301 301 301 301 300 300 300 300 299 299 299 299 299 299 299 301 301 302 303 303 302 302 304 304 304 304 304 304 304 304 306 307 307 306 306 308 307 306 307 307 307 307 307 306 307 306 306 306 306 306 306 306 306 307 308 309 308 308 309 310 310 311 311
292 292 292 292 291 291 292 292 291 289 288 291 294 294 294 295 296 295 295 298 300 300 301 302 301 301 301 301 300 300 300 300 299 299 299 300 300 299 299 300 301 301 302 302 301 302 302 302 302 303 303 303 303 303 304 305 306 306 306 307 306 305 306 307 307 307 307 307 307 306 306 307 306 307 307 306 306 306 306 307 306 306 307 307 307 307 307
293 292 292 292 291 291 291 291 291 289 288 288 289 290 291 293 293 294 294 296 298 299 300 301 301 301 301 301 300 299 299 300 299 298 299 300 300 299 299 300 301 301 302 301 301 301 300 299 300 302 302 302 303 303 303 303 305 306 306 307 306 305 305 306 306 306 306 306 306 307 307 307 307 307 306 306 306 306 306 306 306 306 306 306 306 307 306
293 292 292 292 291 291 291 291 291 290 288 287 288 287 288 289 291 292 293 296 299 300 301 301 302 302 301 301 301 300 300 300 299 298 299 299 300 300 300 300 300 300 302 302 301 301 301 300 300 301 301 301 301 302 302 302 304 305 306 307 306 305 304 305 305 305 304 305 306 306 306 307 307 306 306 306 306 306 306 306 306 306 306 306 307 307 306
293 292 292 292 292 291 291 291 291 290 288 287 287 287 287 288 289 291 293 297 298 299 299 301 302 302 301 300 301 301 300 300 299 299 300 299 299 300 300 300 300 299 301 301 301 301 301 300 300 301 300 300 300 301 301 302 303 304 306 306 305 304 304 304 304 304 304 304 305 305 305 306 306 306 305 306 306 306 306 306 306 306 306 306 306 306 305
293 292 292 292 292 291 290 290 290 290 289 287 287 287 286 287 289 290 292 296 297 295 297 301 300 298 298 297 298 300 300 299 299 300 300 299 299 299 299 299 299 299 300 300 300 301 301 300 300 300 300 300 300 300 301 301 301 302 304 304 303 304 304 304 304 304 304 304 304 305 305 306 306 305 305 305 305 305 306 306 306 306 306 306 305 305 305
293 292 292 292 292 291 290 290 290 290 289 288 287 287 286 286 288 289 291 294 294 292 294 297 294 293 294 295 295 297 297 297 297 298 299 299 299 299 299 299 299 299 299 299 299 300 300 300 300 300 300 300 301 301 301 301 301 301 301 302 303 303 303 303 303 303 303 304 304 305 305 305 304 303 303 304 304 305 306 306 306 305 306 306 305 305 305
293 292 292 292 292 291 290 290 290 290 290 289 288 287 286 285 287 288 289 289 290 290 292 292 290 291 292 292 292 293 293 293 295 296 297 299 299 299 299 299 298 299 300 300 299 300 300 300 301 301 301 301 301 301 301 301 301 301 301 301 302 302 303 303 303 303 303 303 304 304 304 303 303 303 302 303 304 305 306 307 306 305 306 306 306 305 305
292 292 292 292 291 291 291 290 290 290 290 289 288 287 287 286 286 287 287 286 287 288 288 288 289 290 290 290 290 290 290 292 294 296 297 297 298 299 300 299 297 298 300 299 299 300 300 301 301 302 302 302 302 303 302 302 302 301 302 301 301 302 302 302 302 302 303 303 303 303 303 303 303 303 302 303 304 305 306 307 306 305 305 305 305 305 305
293 292 292 292 291 291 291 290 290 290 290 289 288 288 287 286 285 286 286 286 285 286 287 287 288 289 288 288 288 288 289 291 293 294 294 295 296 297 298 297 296 297 299 299 299 300 300 301 302 302 302 302 302 303 303 302 302 302 302 302 302 301 302 302 302 302 302 302 302 302 303 303 302 302 302 302 303 304 305 306 306 305 305 305 305 305 305
293 292 292 292 291 291 291 290 290 290 290 289 289 288 287 287 286 285 286 285 284 286 287 287 287 287 287 287 288 288 290 291 291 291 291 293 295 294 293 294 295 296 298 299 299 300 300 301 301 301 301 302 302 302 302 303 304 302 301 302 302 302 302 302 302 302 302 302 302 302 302 302 301 301 302 302 302 303 304 306 305 304 304 304 304 304 305
293 293 292 292 292 291 290 291 290 290 290 289 289 288 287 287 286 286 286 285 284 285 286 285 286 287 286 286 287 288 289 289 289 289 290 291 291 290 291 293 295 296 298 299 299 299 300 301 301 301 301 302 301 301 301 303 305 304 301 301 303 303 302 302 303 303 302 302 302 302 302 302 302 301 301 301 302 302 304 305 305 304 303 304 304 304 304
293 293 292 292 292 291 290 290 290 290 290 289 289 288 288 287 287 286 286 284 284 285 285 284 285 285 285 285 285 285 285 286 286 287 287 288 288 289 290 291 293 295 298 298 297 298 299 299 299 300 301 301 300 300 301 303 304 303 302 303 303 303 303 303 304 304 303 303 303 302 302 303 302 302 302 303 304 304 304 304 304 303 303 304 303 304 304
294 293 293 292 292 292 290 290 291 290 290 289 289 288 288 287 287 287 286 285 284 285 285 285 285 284 284 284 284 284 285 285 285 286 286 286 289 289 289 289 291 293 295 296 297 297 298 298 299 299 300 300 300 299 300 302 302 302 303 303 303 304 304 304 304 304 304 303 303 303 303 303 302 303 303 304 304 303 303 304 304 303 303 304 304 304 305
294 294 293 293 292 292 291 291 291 290 290 290 289 289 288 288 287 287 287 286 285 285 285 285 285 284 284 284 284 285 285 285 286 286 286 286 288 287 286 288 291 292 293 295 296 296 297 297 298 298 298 299 298 297 298 301 301 301 302 302 302 303 304 303 304 304 304 303 304 304 304 304 303 303 303 304 304 304 303 304 304 305 305 306 305 304 304
294 294 294 293 292 292 291 291 291 291 290 290 289 289 288 288 287 287 287 286 286 286 285 284 284 284 284 284 284 285 284 284 285 285 285 286 287 286 285 287 289 290 292 294 294 295 295 295 294 294 295 295 294 294 295 296 297 299 301 301 302 303 303 303 303 303 303 304 304 304 304 303 302 303 304 304 302 300 300 301 303 305 304 301 301 301 299
294 294 294 293 293 292 291 291 291 290 290 290 289 289 289 288 288 287 287 286 286 286 286 285 285 285 285 284 284 284 284 285 284 284 284 284 285 285 285 286 287 287 289 290 290 291 292 292 292 292 292 292 292 293 294 294 295 297 298 300 301 302 301 301 301 301 302 303 302 302 302 302 300 299 299 298 294 291 291 294 298 300 298 295 295 296 294
294 294 294 294 294 293 292 292 291 290 290 290 290 289 289 288 288 287 287 286 286 286 286 285 284 284 284 284 284 284 284 284 284 284 284 283 284 285 285 285 286 286 287 288 288 289 290 291 291 291 291 292 292 292 293 294 294 295 295 297 299 299 298 299 299 300 300 301 301 301 302 300 296 292 291 290 288 287 287 289 292 293 292 290 290 290 290
293 293 294 293 294 293 293 292 292 291 291 290 290 290 289 289 288 287 286 286 285 285 285 284 283 284 285 284 283 283 283 283 284 284 284 284 284 285 285 285 285 286 286 288 289 289 289 290 290 290 290 290 291 291 292 292 293 294 295 295 297 298 297 297 298 299 300 300 301 301 301 299 296 293 290 288 287 286 285 286 287 287 286 286 286 287 287
293 293 293 293 293 293 293 293 292 291 291 291 290 290 289 289 288 288 287 286 285 285 285 285 284 284 284 282 282 282 283 283 283 283 284 284 284 285 286 286 286 286 287 289 289 289 289 289 290 290 290 290 290 290 290 291 292 293 294 294 295 296 295 294 295 296 298 298 299 299 300 296 292 289 289 288 286 285 284 283 283 283 283 283 284 284 284
294 293 293 293 293 293 293 293 293 292 291 291 291 290 290 289 289 288 286 285 284 284 284 284 285 284 282 282 282 283 283 283 283 283 283 284 285 285 286 286 286 286 287 288 288 288 289 289 289 289 289 289 289 289 289 290 291 291 292 292 293 293 293 293 294 295 295 296 296 297 298 295 290 287 287 285 285 285 285 283 282 282 282 282 282 282 282
294 294 293 293 293 293 293 293 293 292 292 291 291 290 290 289 289 288 287 286 285 285 284 283 283 282 282 282 283 283 283 283 283 282 283 283 284 285 285 285 285 285 286 286 287 287 287 287 288 288 288 288 288 288 288 289 289 289 289 289 289 290 290 291 293 293 293 295 296 295 296 296 294 290 287 285 284 284 283 282 282 281 281 280 281 281 281
294 294 294 293 293 293 293 293 293 293 292 292 291 291 290 290 289 289 288 287 286 285 284 283 283 283 283 284 283 283 283 283 282 282 282 282 283 284 285 285 284 285 285 285 285 285 285 286 287 287 287 287 288 288 288 289 289 289 289 289 289 290 290 290 292 293 293 295 295 293 293 294 292 288 285 284 284 283 282 281 281 280 279 279 279 280 280
294 294 293 293 293 293 293 293 293 293 292 292 291 290 290 289 289 289 288 287 286 284 284 283 283 284 285 285 283 282 283 283 282 282 281 281 282 282 283 283 283 283 284 285 284 284 284 285 286 286 287 287 288 288 288 288 288 289 289 289 289 290 291 291 292 293 294 294 292 290 290 291 289 285 284 283 283 282 282 281 280 279 278 278 278 278 278
293 294 293 293 293 293 293 293 293 293 292 292 291 288 288 288 289 289 288 287 286 284 283 283 284 284 283 284 284 283 282 282 281 281 281 281 281 282 282 282 283 283 283 284 284 284 284 285 285 286 286 287 287 287 287 287 287 287 287 288 288 289 290 290 290 291 292 292 290 288 289 289 286 284 283 282 282 281 281 280 279 278 277 277 277 277 276
293 293 293 293 293 293 293 293 293 293 292 291 289 288 288 288 289 288 287 286 285 284 283 283 284 284 283 283 283 282 281 280 280 280 281 281 282 282 283 282 283 284 284 284 284 284 285 285 286 286 286 287 287 286 286 286 286 287 287 287 288 289 290 290 290 289 290 289 289 288 288 287 285 284 284 282 281 281 281 279 279 278 277 277 277 276 276
293 293 293 293 293 293 293 293 293 292 292 291 290 290 290 289 288 287 286 285 284 284 283 283 283 283 283 282 282 280 278 278 278 279 280 282 282 282 283 283 283 284 284 285 285 285 285 286 285 285 286 287 286 286 287 287 287 287 287 287 288 288 288 289 289 289 288 288 288 289 289 288 286 285 284 282 281 281 281 280 279 278 278 277 277 276 276
293 293 293 293 293 292 292 292 292 292 292 291 291 291 290 289 288 287 286 285 283 283 283 284 283 282 282 281 281 279 278 279 280 280 281 283 282 282 282 282 283 284 285 285 285 286 286 286 285 285 286 286 286 286 286 286 287 287 287 287 287 288 288 288 288 288 287 287 287 288 289 288 285 283 281 280 280 280 280 280 279 278 277 276 276 276 275
293 292 292 292 292 292 292 292 292 292 291 290 290 290 290 289 288 287 287 285 283 282 282 283 283 282 281 281 282 281 279 280 282 281 281 282 282 281 281 281 282 284 284 284 285 285 285 286 286 286 286 286 286 286 287 287 287 287 287 288 288 287 287 288 288 286 285 285 285 285 285 283 281 280 279 278 278 277 278 278 278 278 277 276 275 275 274
292 292 292 292 291 291 291 291 291 290 290 289 288 288 288 288 287 287 287 286 284 283 283 282 283 283 282 283 284 282 279 279 281 281 280 281 280 279 280 281 282 283 284 284 285 285 285 285 286 286 286 286 286 287 287 287 287 287 288 288 286 285 285 287 286 283 281 282 283 282 281 281 280 279 278 277 276 276 276 275 276 276 276 275 274 273 273
292 292 291 291 291 290 290 289 289 289 288 287 287 287 287 287 287 287 287 286 284 284 283 282 282 282 282 284 284 281 279 280 280 279 278 279 279 278 279 280 282 282 283 283 284 284 285 285 286 285 286 286 286 286 287 286 286 287 287 284 280 278 279 280 279 277 278 280 281 281 280 280 279 277 276 275 274 274 274 273 274 274 274 273 272 271 271
292 291 291 290 289 288 288 288 287 287 286 286 286 285 286 286 286 285 285 284 284 284 282 282 282 282 282 282 282 280 280 281 280 279 279 279 280 279 278 279 282 283 283 283 283 283 283 284 284 285 285 285 285 286 286 284 283 282 280 277 274 272 273 273 273 274 277 280 280 279 278 278 277 276 275 274 273 272 272 272 271 271 272 271 270 270 269
291 291 290 289 288 287 287 287 286 285 285 285 284 284 284 283 283 283 283 282 283 283 282 282 283 282 281 281 282 283 282 280 279 280 280 280 280 279 278 279 282 284 283 283 282 282 283 283 284 285 285 284 285 285 282 278 275 274 272 271 270 270 270 270 270 272 277 281 281 279 278 278 277 275 273 272 271 270 270 269 268 268 269 269 268 268 267
291 290 289 288 287 287 287 286 284 284 284 284 283 283 283 281 281 282 281 280 281 282 282 282 283 282 282 282 282 283 283 281 280 280 281 281 282 282 280 280 283 283 282 282 282 282 283 284 284 284 284 285 285 281 276 273 271 270 269 269 269 268 268 268 268 270 273 275 275 274 274 275 275 274 272 271 270 269 268 267 267 266 266 266 266 266 266
290 289 287 287 286 286 285 284 284 284 284 283 282 282 282 282 282 282 281 280 281 281 280 280 281 280 281 281 282 282 282 282 281 280 280 281 283 282 281 281 283 282 282 282 281 279 280 281 281 280 283 286 284 277 272 271 271 269 268 268 268 268 268 267 267 267 268 268 268 267 267 268 269 269 269 268 269 269 268 266 265 265 264 265 265 265 264
289 288 287 287 286 284 283 283 283 283 283 283 282 282 283 282 280 278 278 281 282 280 277 277 279 280 280 280 280 281 282 281 280 279 279 280 282 282 281 281 281 281 282 281 279 277 279 280 279 279 281 283 279 273 271 272 271 269 268 267 267 267 267 266 266 266 267 267 266 265 265 265 266 266 266 266 266 267 266 265 265 263 263 263 263 262 262
289 289 288 286 284 283 282 283 283 282 283 284 283 282 282 280 279 279 280 282 282 280 278 278 280 282 280 278 279 280 280 279 279 279 279 280 282 282 281 280 279 280 281 279 276 277 278 280 280 282 281 278 273 270 271 271 270 268 268 267 266 266 266 266 265 265 265 265 265 264 264 265 265 264 262 263 264 264 264 264 264 262 261 260 260 261 261
289 288 287 285 283 283 283 283 283 282 283 283 284 283 282 281 281 282 283 281 278 278 279 279 279 280 279 278 279 280 280 279 280 280 279 280 281 281 280 279 279 279 278 276 276 278 280 281 283 283 280 275 271 270 270 269 268 268 267 266 265 265 266 265 265 264 264 263 263 263 262 262 263 262 260 260 262 263 263 262 261 261 260 259 260 261 261
287 286 285 284 284 284 284 284 284 283 283 283 283 284 285 283 282 283 284 282 280 279 279 278 279 280 281 280 279 280 280 280 280 280 279 278 278 279 280 280 279 277 277 278 279 279 278 279 280 279 276 273 271 269 268 267 268 268 267 266 265 265 265 266 265 265 264 263 263 262 262 261 260 261 261 260 261 262 261 260 260 260 260 259 260 261 261
286 286 285 285 285 284 284 284 284 284 283 283 283 284 285 285 285 284 283 281 281 280 279 279 280 281 281 279 279 280 280 281 281 280 279 279 278 278 279 279 278 276 277 279 279 278 278 280 279 277 274 273 271 268 267 267 267 266 267 267 266 266 266 266 266 266 266 265 264 263 263 262 260 261 261 260 260 260 260 260 260 260 259 258 259 260 260
287 286 285 286 286 284 284 284 285 284 284 284 284 284 284 285 285 283 280 278 279 281 280 279 279 279 279 279 279 279 279 279 280 280 279 279 279 279 277 277 278 278 278 278 279 280 281 281 279 275 273 271 269 268 267 266 265 266 267 268 268 266 266 266 266 267 266 264 263 263 263 262 260 260 260 260 260 260 260 260 260 259 258 258 258 259 260
287 285 284 286 287 285 284 285 284 284 284 284 284 283 282 280 280 279 277 276 279 280 279 277 278 278 278 279 279 278 277 277 279 279 278 279 280 280 278 278 279 280 279 280 281 282 281 279 276 273 271 269 269 268 268 267 266 267 267 268 268 267 266 266 267 267 264 263 264 265 263 260 259 258 259 260 261 261 261 261 261 260 260 259 259 259 260
287 285 285 286 286 285 285 285 283 283 284 283 281 279 276 276 278 279 276 274 275 277 277 277 278 279 279 278 278 278 277 276 277 279 279 279 280 280 279 279 279 279 278 279 280 280 279 277 274 271 269 268 268 268 269 268 268 268 268 268 268 267 266 267 267 265 262 261 263 262 260 258 257 257 257 258 260 261 261 261 262 261 261 260 260 260 260
286 285 285 285 285 285 284 282 282 284 284 282 279 277 275 276 279 279 276 273 274 276 277 277 278 279 278 278 277 278 277 277 277 278 278 278 279 279 279 279 280 280 278 277 277 277 276 273 270 269 269 268 268 268 268 268 267 267 268 267 266 264 264 266 265 260 257 257 257 257 256 257 256 256 256 258 259 260 261 261 262 262 261 260 260 260 260
286 286 285 285 285 284 282 281 282 284 284 283 281 280 278 278 279 278 275 274 276 276 276 277 279 279 278 277 277 277 277 277 277 278 279 279 279 279 278 278 280 280 278 276 275 274 273 270 268 269 270 269 268 268 268 267 267 267 266 263 260 258 260 261 260 257 256 257 256 255 255 256 255 255 257 258 258 258 260 261 262 261 261 260 260 259 260
285 285 285 285 286 285 284 283 284 285 284 284 284 281 279 279 281 278 275 274 276 277 277 278 279 278 277 277 277 277 277 276 277 277 278 278 277 278 279 279 278 277 276 274 273 271 270 268 268 269 270 269 269 269 268 267 266 265 262 259 257 257 258 258 257 256 257 258 257 256 256 256 256 256 257 257 256 256 258 261 261 260 260 260 260 260 259
285 285 284 284 284 285 284 284 285 284 283 283 282 280 279 280 279 276 273 275 277 278 278 278 278 277 278 278 277 276 276 277 277 277 277 277 276 276 278 278 276 274 273 272 271 270 269 268 268 269 269 269 269 268 267 266 266 264 261 259 258 257 256 256 257 257 257 258 258 258 257 257 258 258 257 256 257 258 260 260 260 259 259 259 260 260 259
Wind_Speed
24 26 26 27 29 30 31 30 33 37 34 25 18 10 4 1 3 4 4 17 16 6 3 3 3 1 0 1 2 1 1 1 3 3 2 2 2 1 1 1 1 1 0 1 3 3 3 4 5 4 5 7 7 5 6 7 7 5 2 3 2 1 1 6 9 8 8 6 1 3 3 0 4 6 7 8 9 9 10 9 7 8 9 9 11 12 7
24 25 26 27 28 30 31 30 34 36 31 23 13 5 2 1 2 3 5 11 6 2 3 4 5 3 1 1 2 1 1 1 2 2 2 2 1 1 1 0 2 1 1 0 3 4 3 4 5 3 3 4 2 5 8 7 5 4 3 3 3 2 2 4 7 7 7 6 5 3 2 2 4 4 6 9 12 13 11 9 8 7 8 10 11 9 5
24 25 25 26 26 29 31 31 35 36 30 21 9 1 2 1 0 2 2 2 1 1 1 1 4 5 3 3 3 2 2 1 0 1 2 1 0 0 1 0 1 0 1 2 2 2 1 1 3 2 2 3 1 3 8 8 6 4 2 2 3 3 2 3 5 8 8 7 6 4 2 3 2 1 5 8 11 13 10 7 8 7 9 13 11 8 8
22 24 25 25 25 28 30 31 35 36 29 18 5 0 2 1 1 2 1 3 3 0 1 1 2 4 5 4 3 4 5 2 1 2 2 1 2 1 1 1 1 1 1 1 2 1 1 1 1 2 3 2 1 1 3 6 7 3 1 1 2 1 3 5 6 8 8 7 6 1 1 3 3 4 7 7 7 10 7 5 6 4 7 11 8 6 10
21 23 25 26 25 27 29 30 34 36 28 15 3 1 2 1 1 2 1 0 0 1 1 1 1 2 6 5 3 6 8 4 1 2 3 1 2 2 1 2 3 2 2 2 2 1 1 2 3 5 5 3 2 2 1 3 5 2 0 2 2 1 5 7 8 10 10 11 11 8 5 6 8 9 11 10 9 10 8 7 7 6 6 8 5 5 9
21 22 24 26 25 26 28 28 33 36 28 13 3 1 2 2 1 2 2 1 1 1 2 2 2 3 6 4 3 7 9 7 5 4 2 1 2 3 2 3 8 7 5 5 4 2 1 4 6 7 6 2 2 3 1 2 4 5 4 3 3 3 6 7 8 11 12 13 13 12 10 8 9 11 13 14 14 14 13 12 11 9 9 8 9 13 15
20 20 22 25 24 25 26 27 32 35 25 15 11 4 3 3 1 1 2 2 1 2 2 3 4 5 7 5 4 6 8 9 8 2 1 2 3 5 5 5 8 9 7 6 6 5 5 6 5 4 3 2 2 3 4 3 4 6 5 3 4 4 5 7 9 11 13 14 14 14 13 12 12 15 16 16 18 18 17 15 15 15 15 12 13 20 22
19 19 20 23 24 24 25 25 29 33 27 20 16 7 3 2 2 2 3 3 2 3 2 3 4 5 6 6 5 6 8 10 7 3 4 5 2 3 8 8 7 8 9 9 11 10 9 10 7 3 3 4 4 4 5 3 3 4 5 4 4 5 6 8 9 9 11 14 14 15 15 15 16 18 17 18 19 19 18 16 14 15 16 15 17 21 19
18 18 18 20 22 23 24 23 26 31 29 20 11 5 5 2 3 2 2 3 2 2 2 2 3 4 5 6 5 6 9 10 6 4 6 9 6 6 9 10 7 6 9 12 15 13 10 12 12 7 6 8 6 4 5 5 3 4 5 4 3 5 6 6 6 8 9 11 14 16 16 16 17 18 17 17 17 17 16 15 14 15 15 16 17 16 12
17 17 17 18 20 22 22 21 22 27 28 19 7 4 7 4 2 2 2 2 3 3 3 1 2 2 1 2 1 2 4 4 5 5 5 8 11 9 7 6 5 5 10 14 14 12 10 13 12 7 8 11 9 6 6 6 5 5 5 4 3 5 6 5 6 7 9 11 14 13 13 13 12 12 15 18 18 18 18 17 17 18 16 14 13 12 12
15 16 16 16 18 20 20 19 20 22 25 21 10 5 8 4 1 2 2 2 1 3 3 2 1 2 5 6 5 4 4 2 3 5 3 2 5 6 5 6 6 7 9 9 8 7 8 9 8 5 7 11 11 10 9 9 10 10 7 5 4 5 7 7 7 7 8 12 13 10 11 10 5 7 16 21 21 21 20 18 19 20 17 14 14 15 16
13 14 15 15 15 18 19 18 17 18 20 20 15 11 11 7 1 1 2 1 1 3 2 1 2 3 6 7 6 5 6 5 4 5 5 4 3 3 4 6 8 7 3 3 2 2 4 5 5 6 8 10 12 12 13 13 15 13 12 11 8 7 8 9 8 7 8 10 11 11 10 8 6 10 16 19 20 22 21 20 21 21 20 20 21 21 21
12 13 13 13 13 15 17 17 15 15 16 17 16 15 14 11 3 1 2 0 1 1 1 2 2 3 5 7 6 6 6 7 7 6 6 7 6 5 4 5 6 4 3 5 4 2 3 6 7 8 10 10 11 13 15 18 18 16 14 15 13 11 10 9 8 9 8 8 10 10 8 6 6 9 10 10 12 16 17 18 21 23 24 22 22 22 22
11 12 11 11 11 12 14 16 14 13 13 15 14 14 15 13 6 1 1 1 1 0 2 3 1 2 5 6 7 7 6 6 6 5 4 4 7 8 4 2 3 3 2 4 4 2 4 4 5 6 8 7 7 9 14 17 18 19 18 16 15 15 13 9 9 9 7 9 12 10 10 11 8 7 9 10 10 14 15 14 16 20 22 20 19 20 21
9 10 10 10 10 10 11 13 13 12 11 12 12 12 13 14 9 3 1 0 1 1 1 0 1 3 5 5 6 6 5 4 4 4 4 4 5 5 2 3 5 4 2 2 2 3 4 4 4 5 6 6 5 5 6 7 10 16 20 19 16 16 15 12 10 9 8 10 11 9 10 11 9 13 17 17 16 17 15 12 11 12 15 16 17 20 22
6 7 9 9 8 8 8 10 11 11 10 10 11 9 9 11 10 6 3 1 1 1 1 1 0 3 4 4 5 5 4 4 4 5 6 4 2 4 6 7 6 4 3 3 3 4 4 5 6 5 5 6 5 4 2 1 3 5 10 15 19 18 16 14 11 9 9 10 10 9 9 8 10 16 19 19 19 16 13 12 10 9 14 19 19 21 22
6 5 7 8 8 8 8 7 9 10 8 9 10 7 5 7 9 7 3 1 1 1 1 0 0 2 2 3 3 2 2 3 3 3 4 4 4 6 7 7 5 3 4 3 3 4 4 6 6 7 7 4 2 3 2 2 3 2 1 6 14 15 13 12 10 9 12 14 11 8 8 8 11 16 19 20 15 9 8 11 8 10 18 23 20 20 19
8 7 5 6 9 10 8 5 6 8 7 8 9 6 3 3 5 6 4 1 1 2 1 2 0 2 3 2 3 2 2 2 2 2 4 4 4 4 4 5 4 2 4 3 4 5 6 7 6 7 8 4 2 3 3 2 4 5 4 5 8 10 10 10 9 9 13 15 12 8 8 8 10 16 20 14 4 5 10 13 7 9 16 17 14 15 15
9 9 7 6 8 10 8 5 4 5 6 8 8 5 2 2 2 3 3 1 0 2 3 2 3 5 3 1 3 3 2 2 2 2 3 3 2 4 5 4 3 2 2 3 4 5 6 7 6 6 8 5 3 3 6 7 7 6 6 7 7 7 7 7 7 8 10 11 11 9 8 8 14 20 16 3 3 7 12 8 3 6 11 10 7 7 7
10 10 9 7 7 9 9 6 4 3 4 7 7 5 3 2 2 2 2 1 2 5 6 5 6 6 4 3 4 4 3 4 4 3 4 3 3 6 5 2 1 1 3 4 4 4 5 7 5 3 5 5 1 2 4 7 9 7 7 9 8 7 6 6 7 7 6 8 10 8 7 9 15 18 10 4 6 11 7 3 2 4 4 4 2 1 1
10 10 10 9 8 8 7 6 5 4 4 6 6 4 2 2 3 4 4 3 2 4 3 3 6 8 8 9 10 10 9 8 5 4 4 4 1 2 2 1 1 2 2 3 3 3 3 3 3 1 2 2 1 2 4 5 7 7 7 7 6 7 6 5 5 6 7 8 8 7 7 8 9 8 7 6 6 3 3 3 4 1 2 1 1 0 1
11 11 11 10 10 9 7 7 8 6 4 6 7 4 2 3 4 4 5 5 5 7 10 12 14 16 18 21 21 20 19 18 14 10 6 5 3 4 4 4 3 2 1 2 3 3 2 3 3 3 4 3 2 5 7 6 6 5 4 3 4 4 3 4 5 5 6 7 7 7 7 4 3 2 1 2 5 7 6 5 5 2 2 2 1 0 2
12 11 11 11 11 11 9 9 10 8 5 7 9 7 5 5 5 5 6 6 6 10 14 15 15 14 14 15 15 15 17 19 20 19 15 8 4 5 6 6 5 3 2 3 5 5 5 5 4 4 6 5 4 6 8 7 7 7 5 5 6 5 5 4 3 4 6 7 7 8 7 5 6 5 4 5 6 6 6 5 5 4 4 4 3 3 3
12 12 11 11 12 12 11 11 11 10 8 9 11 10 7 6 6 6 6 3 2 4 6 5 3 5 6 5 6 8 11 13 16 19 19 15 7 4 5 6 4 3 5 6 4 4 4 5 4 5 6 6 5 7 9 7 6 6 6 8 8 4 4 4 4 5 6 4 4 8 9 5 3 3 2 3 4 5 5 3 4 5 6 6 6 5 4
13 13 12 12 12 13 13 13 13 12 11 11 12 12 9 8 8 7 6 3 0 1 3 3 3 6 6 5 7 9 9 10 11 13 17 20 16 11 7 5 6 7 6 4 3 3 4 4 4 5 6 5 4 7 9 8 5 4 5 7 7 4 6 7 6 7 7 7 9 12 9 2 3 2 1 2 4 5 3 2 3 4 6 6 5 5 4
14 13 12 13 12 12 13 14 14 14 14 14 15 15 14 11 9 9 8 3 1 1 2 3 6 7 5 7 14 16 14 13 14 15 17 20 21 19 15 10 10 12 8 5 5 5 5 4 5 6 7 5 4 6 8 8 6 6 7 7 7 7 8 8 8 8 9 11 11 10 5 1 2 1 1 1 3 4 4 4 3 4 4 4 4 3 3
13 13 13 13 13 13 14 15 14 15 16 16 16 17 16 14 12 12 10 7 3 1 2 3 5 7 10 15 22 19 11 11 13 14 17 18 19 21 18 13 10 9 7 6 6 5 4 5 6 7 8 7 6 7 8 9 9 9 9 10 8 9 10 10 8 9 10 9 4 3 4 6 3 1 2 2 3 3 4 4 4 5 5 5 5 4 4
13 14 13 13 13 14 14 15 15 15 16 16 17 17 17 17 16 14 13 13 9 2 1 3 3 7 10 12 13 8 4 8 11 13 16 18 18 18 17 12 9 7 7 6 5 5 6 7 7 6 6 6 7 8 8 9 9 9 9 10 9 9 11 11 10 9 10 9 4 1 2 7 4 2 1 2 2 1 2 2 3 4 5 5 5 4 3
14 14 14 15 15 15 15 15 14 15 15 14 15 15 14 16 19 18 16 18 16 6 0 2 4 4 6 7 8 7 8 10 12 14 14 13 13 13 13 11 9 8 7 6 6 6 7 7 7 7 5 2 3 6 7 8 9 10 10 12 12 11 12 11 10 10 10 8 4 1 3 6 3 2 1 0 1 0 0 2 2 3 4 4 3 3 4
14 15 15 15 16 16 16 15 14 14 14 12 10 7 4 8 17 20 18 20 20 11 1 2 4 2 3 6 7 8 8 7 7 10 10 8 8 10 10 10 8 7 6 6 7 7 6 5 6 7 6 4 3 5 6 8 9 10 12 16 16 13 9 6 5 7 7 5 2 2 6 5 1 3 2 2 2 2 2 2 3 3 4 4 4 4 5
15 15 16 16 16 16 17 16 15 14 11 8 6 3 1 1 8 14 16 19 20 11 2 2 4 2 3 4 4 5 6 6 4 5 7 7 7 8 10 9 7 7 7 6 6 6 6 5 5 6 7 8 7 5 6 8 10 11 14 15 13 9 6 4 4 6 7 6 5 6 7 4 4 3 3 3 3 3 3 3 3 3 4 4 5 4 4
16 16 16 16 16 16 16 16 14 12 11 11 8 6 6 3 2 7 14 19 18 9 1 1 3 2 2 3 3 4 5 3 1 1 3 5 4 4 7 8 6 6 7 6 5 5 5 6 7 7 8 9 7 5 6 9 11 13 14 12 8 8 8 7 5 5 5 5 5 7 8 7 7 5 3 4 4 3 3 4 4 4 4 4 5 5 5
16 16 16 16 15 15 15 15 14 12 11 11 12 14 16 12 7 7 13 16 12 5 1 1 2 2 2 2 3 3 3 2 1 1 2 3 2 1 2 4 3 5 7 6 4 3 4 5 7 8 7 7 6 5 6 10 14 16 15 13 11 11 11 8 6 5 4 4 5 7 8 5 4 4 4 5 4 3 3 3 4 4 4 4 4 5 6
16 15 15 15 14 14 14 12 11 10 8 7 10 14 16 14 11 11 15 14 8 1 1 2 1 2 2 1 2 2 3 1 1 1 1 1 1 1 1 1 1 3 5 5 4 5 5 5 6 6 6 6 6 5 6 12 15 15 13 12 9 6 6 6 5 4 3 4 4 4 1 2 5 6 5 5 5 5 4 3 3 3 3 4 5 5 5
15 14 14 13 12 11 10 8 8 8 6 6 7 9 10 10 12 15 17 14 6 1 1 2 1 2 2 3 3 1 3 1 2 2 1 1 0 1 1 1 2 3 3 2 3 5 6 4 4 5 5 5 6 6 8 11 13 12 11 8 3 1 3 5 4 2 4 5 3 1 4 6 7 5 5 5 5 4 4 4 3 3 3 4 4 4 4
14 13 12 10 8 7 7 6 6 6 4 4 5 4 5 9 13 17 20 16 7 2 1 1 1 2 2 3 4 1 1 0 1 0 0 1 1 1 1 1 1 2 1 1 3 5 4 2 3 5 5 6 7 7 7 8 10 11 8 4 2 2 3 4 4 6 7 5 1 1 2 5 6 5 4 4 4 4 4 4 4 4 4 4 4 4 4
13 10 8 5 3 4 4 4 5 5 3 4 6 5 4 6 8 10 12 10 6 3 2 1 3 4 2 2 2 1 1 2 1 1 1 2 1 0 1 0 2 3 2 2 5 5 2 1 3 5 7 8 7 5 2 2 4 5 3 2 3 3 4 5 5 7 7 4 1 1 2 3 4 4 3 4 4 4 4 4 4 4 4 3 3 3 4
8 6 4 2 0 1 2 2 4 6 7 8 7 5 3 3 2 1 2 1 2 2 2 2 3 3 2 2 3 2 1 1 1 1 1 1 1 0 1 1 2 2 2 3 3 2 1 2 3 6 8 9 6 2 1 1 1 1 1 2 3 3 3 4 5 4 4 4 2 2 2 2 3 3 4 4 4 4 4 4 4 3 3 3 3 3 3
5 4 4 3 2 2 3 3 6 10 11 9 4 1 1 1 1 1 1 0 1 1 1 2 4 4 4 6 6 2 2 1 1 0 1 1 1 1 1 1 1 1 1 2 1 1 1 3 3 3 6 7 4 1 2 2 2 2 2 2 2 2 2 3 4 4 3 2 1 2 2 2 2 3 3 3 3 3 3 3 4 4 3 3 3 3 3
6 4 3 2 2 4 5 7 9 10 7 3 1 1 1 1 1 1 0 0 1 2 2 2 2 2 4 6 6 3 2 3 2 1 2 2 1 1 0 1 1 1 1 3 1 1 1 2 1 2 4 4 2 2 3 2 2 2 2 3 3 3 2 2 3 3 3 3 4 4 4 4 4 4 4 3 3 3 3 3 3 3 4 4 4 4 4
6 4 3 3 4 6 8 10 8 5 2 1 1 1 1 1 0 0 1 0 2 3 1 1 1 2 2 4 5 5 3 1 1 1 1 2 1 1 1 2 0 1 2 3 1 2 0 1 2 3 4 2 0 1 2 1 1 1 2 2 3 3 3 3 3 4 3 3 3 3 4 5 5 5 4 3 3 2 2 3 3 3 4 4 5 5 6
9 7 5 5 7 7 7 5 3 1 1 1 1 1 1 0 0 0 1 1 2 2 1 1 2 2 2 3 3 3 2 1 1 1 1 2 2 1 2 1 1 0 3 3 1 2 1 1 3 4 4 1 1 2 1 1 0 1 2 2 2 3 3 3 3 4 4 2 1 1 2 3 3 3 3 2 2 2 2 2 2 4 5 6 8 8 7
10 8 5 5 5 4 2 1 1 1 1 1 1 1 1 1 0 1 1 1 1 2 2 1 1 1 1 2 1 1 1 2 2 1 1 1 1 0 0 0 0 1 1 1 2 2 1 3 4 4 2 0 1 2 2 1 1 1 1 1 1 2 3 2 1 2 2 2 1 2 2 3 3 3 3 4 3 2 2 3 4 5 6 9 10 10 8
6 4 3 1 1 1 1 1 1 2 2 2 2 2 2 2 1 2 2 2 2 2 2 1 1 1 1 0 1 1 2 2 2 1 1 1 1 1 0 2 2 1 0 1 1 1 2 4 4 3 1 1 2 2 2 2 2 1 1 1 1 2 2 1 0 0 1 1 1 2 3 3 3 3 4 4 3 2 3 4 5 6 8 10 12 10 8
5 2 1 0 1 1 1 1 0 1 2 3 3 3 3 4 4 4 3 2 2 2 1 1 2 2 2 1 1 1 1 1 0 1 1 1 1 1 2 2 1 1 1 0 1 2 3 4 3 2 2 2 2 2 2 2 2 2 2 1 1 2 2 2 1 1 1 1 2 2 2 3 3 3 3 5 5 4 5 6 7 8 9 11 11 10 9
2 1 2 2 3 2 2 2 1 1 2 3 4 5 5 5 4 3 2 0 2 2 2 1 2 2 2 1 1 1 0 0 1 1 1 1 2 2 1 0 0 0 1 1 2 3 4 4 2 1 2 2 3 3 2 2 2 2 2 2 2 2 2 2 2 1 2 2 2 2 2 1 1 2 4 7 7 5 5 6 7 8 9 10 10 11 12
1 1 2 1 3 2 2 3 3 2 2 3 4 5 4 2 1 1 2 1 2 2 1 1 1 2 2 1 1 1 0 1 1 2 1 1 2 1 1 0 1 2 2 3 4 5 4 3 2 1 2 2 2 3 3 3 2 1 1 2 2 3 3 3 2 2 2 3 3 2 2 2 4 5 5 7 8 9 8 8 8 10 12 13 13 13 12
1 2 2 2 2 3 3 3 1 1 2 2 2 1 1 1 1 2 2 2 2 2 2 1 0 1 1 1 1 1 1 1 1 2 1 1 1 1 0 1 2 2 3 3 4 3 2 1 1 1 1 1 2 2 2 3 3 2 2 2 3 3 4 4 3 3 3 4 3 2 2 5 9 9 7 8 10 12 11 11 13 14 14 13 12 12 11
3 2 2 1 2 2 2 2 1 1 3 2 0 0 1 2 3 3 2 2 1 2 2 2 1 1 1 0 1 1 1 1 1 1 0 1 1 2 1 2 3 3 3 3 2 1 1 1 1 1 1 2 2 2 2 3 3 3 2 2 2 2 3 3 3 4 6 6 5 5 5 8 11 11 8 7 8 11 13 15 16 14 11 9 10 11 12
3 2 2 2 2 2 1 2 1 3 4 3 2 2 3 3 3 2 2 3 2 1 0 1 2 2 1 0 0 1 2 2 2 2 2 2 2 1 1 3 4 3 2 1 1 1 1 0 0 0 2 2 3 3 3 3 3 3 3 3 3 3 3 4 4 6 8 8 8 8 9 9 10 9 8 7 9 14 17 17 13 8 7 9 10 11 12
2 2 2 3 4 4 2 2 4 6 6 5 4 3 3 2 2 3 3 3 3 2 1 1 2 1 0 1 1 1 1 1 1 1 2 2 2 2 2 4 3 2 1 2 2 1 0 0 1 1 1 2 3 3 3 3 3 3 3 4 4 4 5 6 6 7 9 9 8 8 9 9 9 9 9 10 12 14 14 12 9 8 9 11 11 11 13
2 1 1 2 3 3 3 3 4 4 3 3 3 2 2 1 1 2 3 3 3 2 1 1 2 1 2 2 2 1 0 1 1 2 2 2 2 2 2 2 1 1 2 3 2 1 0 1 1 2 2 2 3 3 3 3 3 3 3 4 4 4 5 6 6 7 9 8 7 7 8 9 9 9 9 9 9 7 6 7 10 12 13 13 12 12 12
Wind_Direction
357 357 356 356 357 358 358 357 354 354 356 356 351 346 339 11 27 1 166 162 159 155 153 157 156 152 299 117 106 75 77 20 336 343 349 353 33 33 36 42 259 250 311 181 175 183 203 195 195 209 213 217 223 189 149 135 132 142 194 241 219 142 189 239 248 257 259 251 192 49 29 70 234 231 218 224 229 228 237 249 263 259 244 241 251 255 249
358 358 358 358 358 359 0 358 355 356 359 354 342 338 11 9 353 6 151 163 172 209 166 174 180 159 51 105 125 94 82 70 336 339 340 346 27 25 48 152 240 270 2 286 204 212 218 208 210 219 225 239 239 177 174 165 160 183 201 199 199 202 214 232 242 252 256 245 227 220 200 187 213 227 225 225 231 236 240 247 258 259 246 243 252 256 254
2 0 360 359 358 359 1 359 356 358 360 355 346 310 336 302 151 34 88 109 356 223 153 182 182 149 129 156 141 135 154 122 324 291 306 336 102 318 359 140 226 152 69 10 334 259 258 235 234 249 244 254 336 189 197 194 203 223 211 162 171 198 224 224 232 241 242 236 235 233 220 213 203 238 238 228 232 240 244 243 238 236 238 240 244 256 262
6 4 2 1 0 360 2 1 358 0 1 357 357 174 320 307 70 40 44 35 20 254 32 8 194 150 155 180 154 174 210 238 127 196 250 237 163 218 281 168 155 90 123 350 345 312 307 282 237 264 247 233 23 344 224 213 221 245 30 137 148 178 231 232 238 248 253 260 268 295 9 278 271 270 255 241 243 253 262 257 244 261 264 247 244 266 268
7 10 5 3 3 1 3 3 360 2 3 359 9 87 357 335 37 31 52 114 19 264 317 330 281 160 171 189 164 186 215 239 177 193 226 214 178 221 233 188 205 195 162 205 241 221 255 255 233 242 244 246 327 330 303 228 230 233 105 172 156 209 241 232 237 250 258 268 272 269 269 270 265 263 259 257 257 256 253 247 260 304 295 263 278 292 268
4 12 8 5 5 3 4 4 3 5 5 7 46 90 7 30 42 11 347 287 208 245 236 216 239 183 181 187 160 183 202 207 207 214 203 181 203 219 224 204 215 214 182 192 217 179 205 246 232 232 240 258 303 294 295 251 214 194 197 195 164 217 249 237 236 250 254 257 262 260 254 248 243 250 257 259 258 253 247 244 251 262 259 269 301 289 271
1 10 9 6 6 6 6 5 6 7 10 36 64 59 7 31 32 356 340 312 282 305 280 190 186 194 195 198 185 186 195 201 209 209 157 210 212 212 230 215 206 214 204 206 222 197 199 241 241 219 226 225 232 253 261 249 199 185 191 191 180 212 246 234 228 243 250 249 252 252 248 245 243 244 245 249 254 254 253 253 251 251 253 261 275 274 271
360 5 9 9 7 8 8 8 9 8 16 45 61 46 17 29 354 349 342 312 281 296 292 183 189 200 204 217 207 193 206 210 209 188 196 222 198 182 226 225 203 209 210 216 231 223 218 246 255 200 192 224 213 223 244 237 205 202 198 194 204 219 235 234 231 245 250 247 247 246 242 242 246 246 242 242 250 255 257 258 255 254 256 252 250 257 264
360 2 8 11 9 8 9 10 10 11 20 41 59 31 19 11 296 323 323 316 345 323 298 195 204 205 207 223 210 199 219 219 209 207 212 220 217 198 214 223 215 214 216 222 236 238 231 248 253 225 216 241 229 211 230 220 203 211 204 195 202 212 232 248 245 252 254 243 240 242 241 241 243 247 249 247 247 248 248 246 240 240 245 245 243 248 256
360 1 5 11 10 8 10 11 10 14 24 39 58 13 8 357 310 355 319 295 13 3 328 279 231 220 230 281 280 254 251 213 190 219 225 220 232 235 221 211 209 224 230 230 237 245 244 249 256 244 239 253 250 240 240 227 222 228 210 196 194 202 224 247 236 243 255 248 243 245 246 246 240 234 238 242 242 241 241 240 236 234 238 244 246 248 253
0 1 2 9 11 9 11 13 11 16 27 39 51 25 3 357 351 16 335 248 32 11 333 321 317 2 16 5 353 347 356 45 192 234 252 221 249 263 240 218 229 243 246 244 245 253 256 259 266 258 249 256 254 250 249 240 238 238 226 222 212 196 215 237 239 244 255 255 257 257 248 247 242 214 218 225 232 237 240 241 239 236 233 236 246 252 254
1 3 2 4 9 10 11 13 13 17 26 35 44 39 21 14 351 3 16 220 329 1 354 19 19 349 358 2 354 354 2 348 307 288 293 295 302 292 244 231 242 250 274 325 302 252 263 272 269 253 247 250 250 250 248 242 239 235 230 234 232 211 218 233 240 245 251 260 266 261 247 239 241 240 232 228 232 237 240 242 242 241 238 236 239 245 248
359 2 1 360 5 10 11 12 14 18 20 26 39 45 33 26 30 73 54 157 264 346 325 303 330 338 352 1 348 334 331 312 293 282 276 273 273 269 243 229 244 260 13 16 352 300 274 267 255 252 251 247 247 247 241 238 239 234 228 229 230 228 229 231 236 240 244 251 247 247 255 255 251 256 253 242 237 235 238 243 240 238 239 238 237 240 244
356 356 359 359 3 9 12 13 13 13 13 18 35 48 39 33 36 57 33 342 270 270 272 286 337 358 346 345 330 317 314 305 288 268 263 280 281 276 261 235 294 311 360 2 340 283 257 260 252 252 248 236 240 244 234 231 234 231 225 223 224 230 233 233 237 234 229 240 243 250 271 273 264 252 238 228 224 219 223 236 236 232 236 239 241 245 247
351 352 353 355 358 5 12 13 10 9 9 12 26 43 43 39 40 53 107 82 293 270 244 228 33 341 326 322 316 311 311 318 314 297 292 290 278 281 310 353 335 314 268 274 273 231 233 246 239 242 240 229 234 242 225 225 234 228 223 217 213 220 226 228 232 228 221 239 249 252 258 255 247 245 239 234 233 228 228 239 240 233 237 239 237 241 243
331 346 349 344 345 359 10 10 7 5 1 4 17 33 44 44 45 54 89 117 308 314 80 84 295 294 306 293 282 292 304 317 331 320 302 291 295 326 336 333 322 293 234 236 246 228 223 229 230 238 241 231 236 241 201 202 258 239 224 219 214 214 220 225 231 232 228 234 241 242 245 241 239 247 248 245 244 239 240 253 251 239 244 243 236 237 240
305 321 337 332 327 346 4 4 1 1 352 355 11 22 36 48 49 48 62 106 325 308 250 93 299 280 305 296 273 277 299 305 318 310 294 301 325 323 321 324 317 260 208 221 255 247 239 241 242 247 242 221 223 254 222 177 237 256 145 210 214 214 219 224 227 229 228 233 239 241 242 243 242 247 254 257 252 226 222 247 240 221 237 243 241 242 245
297 294 315 320 314 333 356 355 350 358 347 346 2 11 17 43 44 43 60 117 326 312 213 144 59 291 295 308 295 291 294 289 289 287 289 297 311 317 318 319 310 256 196 217 250 250 254 257 252 254 255 227 169 244 236 171 223 232 184 177 206 212 215 217 222 228 228 232 240 245 242 242 242 245 251 257 240 175 219 242 237 222 240 249 249 247 246
300 289 293 303 304 323 345 343 335 352 341 335 350 1 349 353 23 30 46 93 240 277 241 217 258 267 260 256 264 260 255 257 257 279 288 284 322 343 322 286 258 259 253 255 257 249 253 256 247 249 257 235 188 258 251 227 235 236 197 185 197 203 208 211 216 226 230 231 237 245 248 239 237 244 249 230 139 231 245 250 249 246 255 261 255 244 242
304 292 286 287 289 307 331 334 320 334 323 314 329 346 340 312 281 296 337 356 290 283 277 255 238 234 208 192 229 251 259 250 235 230 252 267 6 360 323 263 175 309 278 254 258 256 254 263 267 265 262 248 235 341 275 249 258 259 227 217 208 192 197 214 210 210 225 234 235 240 247 235 231 237 238 173 207 247 265 286 280 267 267 269 253 209 217
305 297 289 282 272 286 313 311 292 300 292 285 305 329 323 285 276 267 270 271 277 294 293 242 226 234 235 236 242 250 254 246 229 222 250 267 332 4 298 297 45 346 288 266 270 266 261 283 303 298 279 291 356 336 311 297 289 279 263 257 235 191 189 216 217 205 212 223 221 220 235 238 226 221 219 212 228 277 355 308 278 307 46 346 309 125 355
306 300 294 286 270 264 273 279 282 292 274 264 282 294 261 264 271 257 248 241 240 260 273 278 278 272 266 264 260 256 252 251 249 246 249 265 261 237 256 293 280 251 295 323 292 280 286 296 302 293 283 287 293 281 278 277 282 288 299 292 261 233 248 274 257 236 240 253 258 258 262 286 6 23 303 325 3 15 9 328 310 341 19 346 329 305 337
304 301 296 289 277 266 257 259 272 281 261 253 266 267 257 264 259 242 241 245 255 267 271 278 288 285 274 270 267 258 251 249 248 241 230 227 247 246 242 255 262 252 255 261 261 274 282 277 282 291 283 275 277 279 271 262 266 275 276 268 271 296 323 313 278 292 304 291 280 285 300 350 31 25 23 31 20 9 4 350 336 334 339 339 325 310 317
301 299 296 291 284 276 264 253 255 261 252 249 259 262 258 258 245 224 221 232 291 298 281 277 297 290 277 275 272 259 248 243 245 241 228 215 217 256 241 221 219 235 242 245 256 275 276 268 264 263 264 264 268 274 273 269 269 272 274 273 271 293 358 350 304 302 309 307 322 319 313 329 23 19 34 44 8 360 8 356 332 330 329 324 318 316 317
301 299 296 292 288 286 279 265 253 251 247 246 251 249 242 247 243 220 212 220 138 304 294 297 278 272 276 275 267 267 263 251 245 240 226 211 210 229 245 229 226 243 254 269 293 282 260 250 241 247 256 251 241 258 267 267 273 292 289 276 272 303 357 344 304 288 288 289 303 308 303 323 60 33 16 10 340 334 346 350 333 322 314 313 323 329 332
300 297 294 291 289 288 286 278 264 254 247 245 247 246 245 248 239 209 194 185 124 188 261 282 277 280 295 293 285 286 283 265 250 239 232 222 218 228 245 257 260 263 270 280 281 278 272 262 252 256 262 251 236 257 268 269 285 301 286 271 284 306 311 302 288 289 289 284 292 308 318 31 92 82 39 357 324 315 327 338 331 320 315 321 332 345 7
298 296 292 290 288 284 285 284 277 265 253 245 246 250 249 245 238 224 211 192 157 217 259 241 266 295 306 300 296 295 281 254 244 236 235 233 229 231 239 248 255 259 261 259 257 258 258 259 256 254 256 259 261 267 269 269 277 283 275 271 280 283 277 277 280 280 279 279 296 359 330 290 279 31 24 343 326 317 318 322 331 338 343 341 338 349 18
297 296 291 289 288 285 282 283 283 280 271 256 247 249 247 242 241 243 235 217 202 203 257 221 263 305 306 298 295 288 245 245 252 246 242 241 236 233 235 238 242 244 243 244 244 237 236 242 247 248 250 260 265 261 260 262 258 253 254 256 255 254 260 268 272 270 276 289 308 53 273 281 293 64 42 321 322 313 308 334 347 348 349 348 347 352 8
297 296 292 291 289 285 285 284 283 286 284 264 243 240 244 243 242 243 239 226 215 202 269 264 262 292 296 289 284 271 267 271 264 255 251 248 237 230 228 229 232 233 232 234 236 238 242 243 246 251 243 230 269 266 262 261 258 254 256 259 259 260 261 265 271 276 285 302 327 19 265 284 308 88 116 19 25 198 343 29 20 10 10 8 10 17 17
298 295 293 292 288 284 286 285 282 287 287 264 235 226 254 254 243 237 233 224 213 198 163 274 252 270 291 282 279 274 274 273 256 247 246 238 229 225 219 217 223 224 224 232 235 239 251 248 242 248 241 217 249 273 264 259 262 262 260 261 263 265 262 254 255 266 277 296 328 291 271 270 229 120 125 107 98 121 118 79 54 46 39 33 37 38 30
299 296 295 294 289 286 285 282 282 288 277 235 192 160 41 283 232 224 217 211 205 194 154 270 251 294 303 259 253 273 278 273 260 251 243 234 235 231 218 213 217 216 217 230 236 235 244 246 241 246 239 225 227 245 253 256 263 262 258 258 262 268 274 267 248 250 267 289 302 289 273 240 179 172 175 147 128 129 129 113 89 81 72 58 55 55 47
299 298 297 296 292 288 286 283 283 279 258 233 222 235 242 239 207 202 198 194 190 185 137 284 257 296 297 258 266 275 264 256 270 287 250 228 223 223 216 214 220 221 222 232 241 235 235 239 244 252 246 233 233 247 251 251 256 260 261 265 273 278 278 278 266 248 255 274 282 277 268 241 210 203 176 139 127 120 128 124 107 95 87 76 70 64 55
300 299 297 297 294 291 290 288 282 274 265 257 258 256 253 256 261 221 192 180 175 179 202 222 261 278 263 287 295 258 213 203 309 300 237 201 180 197 225 217 223 232 229 225 229 240 233 227 239 250 246 232 234 249 251 248 253 261 270 278 282 280 278 275 265 250 253 260 256 266 275 257 189 142 108 103 95 77 89 111 111 103 92 75 66 56 47
300 300 298 297 295 291 292 290 277 265 255 238 243 254 256 250 239 218 194 174 157 145 201 173 263 276 248 328 324 205 167 168 270 242 195 165 150 176 239 226 202 217 218 210 218 243 246 237 244 254 246 231 231 238 245 250 253 261 270 274 274 280 282 269 251 245 272 277 252 239 234 117 117 108 95 94 83 63 55 57 80 112 106 74 59 50 39
299 300 300 299 297 292 291 286 264 249 240 222 234 259 257 227 211 211 203 185 158 60 232 179 210 270 273 299 297 209 133 149 253 232 229 286 354 140 176 244 230 215 209 198 219 238 242 238 242 252 250 242 239 236 242 255 262 266 272 274 280 322 289 268 262 313 324 307 280 189 135 129 127 117 110 108 93 78 72 58 50 85 100 74 52 41 34
296 299 299 297 295 291 285 264 229 221 228 216 211 233 235 208 198 202 203 197 189 207 208 164 206 218 227 272 276 261 87 330 273 253 256 286 328 84 117 132 243 228 193 188 238 241 241 226 233 252 253 242 239 241 250 267 273 274 278 297 3 13 310 293 314 328 318 307 296 103 122 130 129 122 118 107 88 86 94 77 56 67 79 63 37 28 24
297 300 297 288 291 299 289 245 212 209 207 182 168 157 158 173 182 195 201 202 210 215 171 160 243 227 196 236 263 286 347 282 293 16 298 251 235 131 117 183 245 233 210 230 237 236 236 236 246 252 250 243 243 249 253 259 268 276 297 345 6 349 321 319 324 315 299 277 193 110 77 94 100 96 92 81 66 66 72 62 50 50 53 43 27 15 9
298 292 264 234 198 319 283 234 190 170 153 147 147 140 119 119 136 215 235 227 253 240 162 185 241 226 163 209 228 183 154 277 346 32 296 246 226 170 202 228 234 229 244 260 246 202 172 224 232 240 249 252 249 242 142 130 140 5 359 344 338 336 329 327 329 315 281 253 213 147 122 99 74 61 62 62 54 47 47 43 33 27 29 29 11 354 353
276 249 217 186 158 209 227 189 157 155 155 151 148 148 90 80 79 290 285 299 288 278 177 218 238 216 196 226 241 209 141 165 296 292 231 246 253 228 217 233 227 200 262 281 284 117 194 237 234 245 258 257 243 178 90 87 80 49 17 342 331 334 336 344 345 334 312 313 14 62 78 78 73 67 62 57 51 49 44 36 27 18 7 353 350 353 354
231 208 178 172 208 211 187 163 153 157 162 160 96 71 132 140 170 192 205 342 278 232 203 214 254 238 210 226 247 245 172 169 198 211 214 239 241 177 152 252 222 139 221 258 276 73 231 257 273 274 261 250 210 86 63 73 86 40 4 346 333 335 5 36 18 357 357 21 37 42 42 46 60 70 62 44 39 38 26 16 13 5 349 343 347 348 339
203 195 185 190 186 169 156 153 154 155 151 115 75 128 173 213 235 137 115 209 244 251 240 143 296 295 248 206 222 236 223 170 125 143 195 248 250 165 189 248 256 126 232 245 241 74 90 251 259 257 251 246 58 39 29 59 93 60 22 1 346 348 10 41 43 36 40 48 47 46 47 52 61 67 58 40 36 29 6 354 353 348 340 332 326 321 321
232 223 197 157 141 136 138 144 148 126 85 129 176 193 182 188 352 231 222 222 226 244 261 160 195 230 207 167 190 230 237 111 90 120 196 251 251 188 205 276 11 173 233 238 68 62 44 247 252 254 251 260 334 333 339 8 24 19 11 6 358 355 360 18 41 46 48 52 49 41 45 52 62 64 50 34 36 25 345 323 312 317 324 322 318 318 322
235 215 179 137 121 123 130 146 150 126 113 136 186 215 256 304 305 237 260 265 224 221 249 248 192 200 181 147 159 262 220 191 183 153 181 260 287 50 71 324 212 204 238 12 65 80 214 228 239 248 247 91 310 308 333 349 326 317 3 22 12 353 347 350 26 50 49 55 59 46 44 48 50 46 33 28 27 1 313 292 279 291 314 324 324 327 329
191 172 144 108 100 134 145 165 155 154 174 198 189 185 210 248 228 198 218 231 207 207 229 196 145 198 235 152 109 258 227 195 174 158 189 238 314 54 190 237 235 226 330 44 125 211 245 245 248 260 292 321 295 308 332 340 326 312 304 347 2 355 342 326 287 145 66 52 37 42 48 42 29 19 14 13 360 310 293 299 301 310 323 328 329 335 341
159 139 94 20 264 177 163 193 131 145 191 209 191 174 190 211 211 208 213 201 152 168 200 156 151 211 247 240 170 223 232 169 159 211 198 185 189 199 210 228 255 34 31 295 266 272 272 262 261 282 298 283 291 317 337 350 355 329 293 294 353 8 342 321 314 328 13 14 5 8 20 23 18 7 345 334 324 303 290 297 309 319 325 326 328 331 335
170 161 141 186 224 202 171 194 214 199 207 208 194 190 200 209 212 217 228 100 110 159 188 167 151 196 233 245 221 217 138 105 226 226 164 154 219 229 205 166 253 220 231 267 265 256 255 258 270 312 298 282 290 311 322 337 351 330 299 293 325 338 325 309 310 340 8 5 353 349 359 7 356 331 319 317 319 319 316 315 320 323 322 319 318 319 322
250 155 127 207 241 217 189 208 214 204 196 200 205 210 214 219 241 239 218 183 161 165 173 161 189 217 228 230 229 240 93 109 223 235 165 153 237 247 96 121 227 213 201 226 241 243 253 277 303 298 279 286 303 324 337 340 337 328 314 307 310 319 322 320 327 353 7 356 338 331 334 334 331 332 329 321 321 329 338 338 334 330 323 315 312 314 319
174 165 168 211 221 213 215 217 222 238 218 203 207 221 181 159 236 239 210 162 142 152 153 147 194 260 258 208 197 225 221 136 210 231 186 128 226 256 204 228 246 231 199 212 228 235 247 288 314 320 289 287 291 303 319 321 317 321 331 323 320 331 335 327 327 343 352 346 336 319 316 326 330 331 330 321 319 325 334 335 331 329 325 318 315 319 323
193 182 185 198 212 226 214 171 145 263 242 207 173 263 170 191 225 231 172 125 139 185 189 179 172 210 251 226 176 214 216 192 197 223 192 170 224 227 195 211 243 251 237 225 235 255 276 305 343 334 295 280 274 276 286 292 292 296 305 301 305 325 324 312 315 328 332 330 324 311 308 315 318 319 320 320 316 317 322 326 328 331 331 327 323 323 323
204 191 187 195 214 228 177 122 197 254 245 233 244 231 199 202 235 225 159 143 152 140 137 207 201 197 201 90 76 244 240 213 189 205 225 219 208 193 200 228 231 229 228 233 245 262 276 295 110 237 266 275 271 266 273 286 287 285 291 296 299 305 306 303 309 318 322 322 318 310 305 305 306 306 308 307 304 308 315 321 329 338 338 330 325 320 317
225 224 223 217 218 214 191 202 255 258 250 249 250 227 184 186 225 201 158 143 140 131 144 205 198 168 184 212 205 221 239 181 160 207 238 226 180 163 205 238 237 220 248 283 284 283 278 217 171 192 234 262 263 254 250 266 283 287 292 296 299 304 310 309 306 305 310 314 313 304 299 301 305 306 303 301 305 311 316 320 327 335 332 325 320 316 312
211 235 254 241 237 231 226 245 269 271 263 270 275 232 173 189 227 183 146 142 158 185 213 184 151 158 210 217 201 175 231 208 209 232 245 241 206 177 198 234 270 330 299 290 298 325 184 216 228 222 221 236 261 269 264 269 279 278 271 271 277 287 295 299 303 305 308 313 315 313 310 311 313 312 308 307 311 315 311 308 317 326 327 323 321 319 315